KC3BHK-2 Weather Reports


Display with metric or nautical units.
time (UTC)temp
F
wind
direction
speed
MPH
gust
MPH
rain 1hr
in
rain 24hr
in
rain mn
in
humidity
%
barometer
mb
20200409041700 48 359 0.0 0.0 0.00 0.00 0.00
20200409041154 48 359 0.0 0.0 0.00 0.00 0.00
20200409040144 48 359 0.0 0.0 0.00 0.00 0.00
20200409035131 49 359 0.0 0.0 0.00 0.00 0.00
20200409033615 50 359 0.0 0.0 0.00 0.00 0.00
20200409033110 50 359 0.0 0.0 0.00 0.00 0.00
20200409032605 51 359 0.0 0.0 0.00 0.00 0.00
20200409032056 51 359 0.0 0.0 0.00 0.00 0.00
20200409031551 50 359 0.0 0.0 0.00 0.00 0.00
20200409031046 51 359 0.0 0.0 0.00 0.00 0.00
20200409030035 53 359 0.0 0.0 0.00 0.00 0.00
20200409025531 52 359 0.0 0.0 0.00 0.00 0.00
20200409025022 52 359 0.0 0.0 0.00 0.00 0.00
20200409024517 52 359 0.0 0.0 0.00 0.00 0.00
20200409023001 52 359 0.0 0.0 0.00 0.00 0.00
20200409022456 52 359 0.0 0.0 0.00 0.00 0.00
20200409021948 53 359 0.0 0.0 0.00 0.00 0.00
20200409021443 51 359 0.0 0.0 0.00 0.00 0.00
20200409020433 54 359 0.0 0.0 0.00 0.00 0.00
20200409014914 54 359 0.0 0.0 0.00 0.00 0.00
20200409013904 55 359 0.0 0.0 0.00 0.00 0.00
20200409013359 55 359 0.0 0.0 0.00 0.00 0.00
20200409012854 55 359 0.0 0.0 0.00 0.00 0.00
20200409012349 56 359 0.0 0.0 0.00 0.00 0.00
20200409011335 59 359 0.0 0.0 0.00 0.00 0.00
20200409010830 58 359 0.0 0.0 0.00 0.00 0.00
20200409010326 58 359 0.0 0.0 0.00 0.00 0.00
20200409005820 59 359 0.0 0.0 0.00 0.00 0.00
20200409005315 60 359 0.0 0.0 0.00 0.00 0.00
20200409003755 62 359 0.0 0.0 0.00 0.00 0.00
20200409003250 63 359 0.0 0.0 0.00 0.00 0.00
20200409002745 65 359 0.0 0.0 0.00 0.00 0.00
20200409001227 65 359 0.0 1.0 0.00 0.00 0.00
20200409000723 64 354 0.0 0.0 0.00 0.00 0.00
20200408235713 67 353 0.0 3.0 0.00 0.00 0.00
20200408234700 68 323 3.0 7.0 0.00 0.00 0.00
20200408234155 68 311 5.0 7.0 0.00 0.00 0.00
20200408233649 68 308 5.0 8.0 0.00 0.00 0.00
20200408233145 69 333 3.0 8.0 0.00 0.00 0.00
20200408232135 70 329 5.0 8.0 0.00 0.00 0.00
20200408231627 70 326 5.0 7.0 0.00 0.00 0.00
20200408230617 68 304 3.0 4.0 0.00 0.00 0.00
20200408230112 70 305 3.0 5.0 0.00 0.00 0.00
20200408225608 70 336 0.0 4.0 0.00 0.00 0.00
20200408225103 71 338 0.0 6.0 0.00 0.00 0.00
20200408224051 73 30 2.0 6.0 0.00 0.00 0.00
20200408223040 72 305 8.0 14.0 0.00 0.00 0.00
20200408222536 71 359 5.0 10.0 0.00 0.00 0.00
20200408222030 73 307 5.0 11.0 0.00 0.00 0.00
20200408221522 72 308 6.0 10.0 0.00 0.00 0.00
20200408221018 72 314 8.0 10.0 0.00 0.00 0.00
20200408220513 71 308 5.0 10.0 0.00 0.00 0.00
20200408220008 72 308 6.0 10.0 0.00 0.00 0.00
20200408215503 73 322 7.0 10.0 0.00 0.00 0.00
20200408214958 72 312 4.0 14.0 0.00 0.00 0.00
20200408213441 74 321 10.0 17.0 0.00 0.00 0.00
20200408212936 75 307 11.0 16.0 0.00 0.00 0.00
20200408210913 72 312 11.0 18.0 0.00 0.00 0.00
20200408205904 72 277 16.0 20.0 0.00 0.00 0.00
20200408205359 72 307 9.0 20.0 0.00 0.00 0.00
20200408204855 74 304 9.0 18.0 0.00 0.00 0.00
20200408204346 73 295 11.0 20.0 0.00 0.00 0.00
20200408203841 73 304 9.0 22.0 0.00 0.00 0.00
20200408203336 73 308 9.0 18.0 0.00 0.00 0.00
20200408201821 72 311 13.0 19.0 0.00 0.00 0.00
20200408201312 73 325 13.0 26.0 0.00 0.00 0.00
20200408200807 73 335 14.0 22.0 0.00 0.00 0.00
20200408195758 72 301 7.0 22.0 0.00 0.00 0.00
20200408194240 72 298 9.0 25.0 0.00 0.00 0.00
20200408193231 73 309 12.0 24.0 0.00 0.00 0.00
20200408192725 73 287 11.0 12.0 0.00 0.00 0.00
20200408191716 75 356 7.0 19.0 0.00 0.00 0.00
20200408191209 74 330 9.0 16.0 0.00 0.00 0.00
20200408190704 73 27 8.0 21.0 0.00 0.00 0.00
20200408190159 72 333 2.0 20.0 0.00 0.00 0.00
20200408185654 72 315 8.0 14.0 0.00 0.00 0.00
20200408185149 75 359 6.0 21.0 0.00 0.00 0.00
20200408183630 73 302 7.0 18.0 0.00 0.00 0.00
20200408183125 72 316 9.0 19.0 0.00 0.00 0.00
20200408182621 72 343 5.0 15.0 0.00 0.00 0.00
20200408180053 72 318 12.0 18.0 0.00 0.00 0.00
20200408175043 73 340 3.0 17.0 0.00 0.00 0.00
20200408174538 72 300 10.0 16.0 0.00 0.00 0.00
20200408174030 71 312 15.0 17.0 0.00 0.00 0.00
20200408172010 70 304 14.0 14.0 0.00 0.00 0.00
20200408165948 70 309 8.0 17.0 0.00 0.00 0.00
20200408165443 69 322 9.0 20.0 0.00 0.00 0.00
20200408164433 68 318 10.0 17.0 0.00 0.00 0.00
20200408163926 69 325 9.0 18.0 0.00 0.00 0.00
20200408162916 68 298 11.0 11.0 0.00 0.00 0.00
20200408161906 69 315 4.0 15.0 0.00 0.00 0.00
20200408154833 69 293 10.0 16.0 0.00 0.00 0.00
20200408154328 69 322 7.0 15.0 0.00 0.00 0.00
20200408153820 70 297 5.0 18.0 0.00 0.00 0.00
20200408153316 68 307 12.0 17.0 0.00 0.00 0.00
20200408151759 68 326 11.0 20.0 0.00 0.00 0.00
20200408151255 69 290 14.0 20.0 0.00 0.00 0.00
20200408150747 68 305 11.0 20.0 0.00 0.00 0.00
20200408150242 68 311 16.0 19.0 0.00 0.00 0.00
20200408145232 68 312 10.0 18.0 0.00 0.00 0.00
20200408144727 66 300 8.0 21.0 0.00 0.00 0.00
20200408144222 68 297 13.0 16.0 0.00 0.00 0.00
20200408143714 68 309 8.0 14.0 0.00 0.00 0.00
20200408143209 66 284 9.0 14.0 0.00 0.00 0.00
20200408141654 66 300 6.0 13.0 0.00 0.00 0.00
20200408141149 67 297 9.0 10.0 0.00 0.00 0.00
20200408140641 65 312 7.0 13.0 0.00 0.00 0.00
20200408140136 64 288 6.0 14.0 0.00 0.00 0.00
20200408135632 64 312 7.0 13.0 0.00 0.00 0.00
20200408135126 65 293 5.0 6.0 0.00 0.00 0.00
20200408133607 64 245 3.0 5.0 0.00 0.00 0.00
20200408132557 62 177 5.0 0.0 0.00 0.00 0.00
20200408130028 59 153 0.0 0.0 0.00 0.00 0.00
20200408125523 60 153 0.0 0.0 0.00 0.00 0.00
20200408124513 60 153 0.0 5.0 0.00 0.00 0.00
20200408124008 59 153 0.0 5.0 0.00 0.00 0.00
20200408123500 58 200 4.0 0.0 0.00 0.00 0.00
20200408122450 58 293 0.0 7.0 0.00 0.00 0.00
20200408121440 59 278 0.0 9.0 0.00 0.00 0.00
20200408113900 58 285 12.0 10.0 0.00 0.00 0.00
20200408113352 57 307 4.0 10.0 0.00 0.00 0.00
20200408112341 56 259 7.0 9.0 0.00 0.00 0.00
20200408111331 55 291 0.0 4.0 0.00 0.00 0.00
20200408110826 56 349 2.0 3.0 0.00 0.00 0.00
20200408104257 57 290 15.0 17.0 0.00 0.00 0.00
20200408102738 55 280 11.0 15.0 0.00 0.00 0.00
20200408101222 55 293 9.0 15.0 0.00 0.00 0.00
20200408100717 55 295 9.0 13.0 0.00 0.00 0.00
20200408100209 54 283 8.0 14.0 0.00 0.00 0.00
20200408095706 56 287 12.0 13.0 0.00 0.00 0.00
20200408094654 54 283 8.0 9.0 0.00 0.00 0.00
20200408094149 54 283 7.0 7.0 0.00 0.00 0.00
20200408093134 54 276 4.0 9.0 0.00 0.00 0.00
20200408092629 54 305 5.0 6.0 0.00 0.00 0.00
20200408092124 53 100 0.0 0.0 0.00 0.00 0.00
20200408091619 54 100 0.0 0.0 0.00 0.00 0.00
20200408091113 55 100 0.0 0.0 0.00 0.00 0.00
20200408090608 54 100 0.0 0.0 0.00 0.00 0.00
20200408090100 55 100 0.0 0.0 0.00 0.00 0.00
20200408085554 55 100 0.0 3.0 0.00 0.00 0.00
20200408085048 54 28 0.0 0.0 0.00 0.00 0.00
20200408084543 54 28 0.0 0.0 0.00 0.00 0.00
20200408084037 54 28 0.0 4.0 0.00 0.00 0.00
20200408083025 54 48 4.0 7.0 0.00 0.00 0.00
20200408082519 54 8 5.0 8.0 0.00 0.00 0.00
20200408082014 55 25 2.0 22.0 0.00 0.00 0.00
20200408081508 54 332 4.0 16.0 0.00 0.00 0.00
20200408081003 54 76 2.0 18.0 0.00 0.00 0.00
20200408075950 54 343 10.0 17.0 0.00 0.00 0.00
20200408075445 54 3 4.0 18.0 0.00 0.00 0.00
20200408074940 54 359 6.0 37.0 0.00 0.00 0.00
20200408074435 56 339 1.0 8.0 0.00 0.00 0.00
20200408073929 54 228 0.0 0.0 0.00 0.00 0.00
20200408072914 56 228 0.0 0.0 0.00 0.00 0.00
20200408072407 55 228 0.0 0.0 0.00 0.00 0.00
20200408071901 54 228 0.0 0.0 0.00 0.00 0.00
20200408065837 56 228 0.0 0.0 0.00 0.00 0.00
20200408065332 54 228 0.0 0.0 0.00 0.00 0.00
20200408064826 56 228 0.0 0.0 0.00 0.00 0.00
20200408064321 55 228 0.0 0.0 0.00 0.00 0.00
20200408063857 54 228 0.0 0.0 0.00 0.00 0.00
20200408063816 54 228 0.0 0.0 0.00 0.00 0.00
20200408062258 54 228 0.0 0.0 0.00 0.00 0.00
20200408060742 56 228 0.0 5.0 0.00 0.00 0.00
20200408055729 56 217 2.0 7.0 0.00 0.00 0.00
20200408055223 56 208 6.0 6.0 0.00 0.00 0.00
20200408054211 55 172 3.0 5.0 0.00 0.00 0.00
20200408052653 56 186 0.0 6.0 0.00 0.00 0.00
20200408052148 55 193 1.0 6.0 0.00 0.00 0.00
20200408051643 55 183 4.0 4.0 0.00 0.00 0.00
20200408051138 55 228 0.0 0.0 0.00 0.00 0.00
20200408050632 56 228 0.0 0.0 0.00 0.00 0.00
20200408050125 56 228 0.0 0.0 0.00 0.00 0.00
20200408045112 55 219 0.0 0.0 0.00 0.00 0.00
20200408043555 56 219 1.0 5.0 0.00 0.00 0.00
20200408043050 55 222 3.0 5.0 0.00 0.00 0.00